Year,Month,Day,Hour,Minute,Value (Times are PST for temperature in C)
2013,07,02,00,00,16.40
2013,07,02,00,01,16.40
2013,07,02,00,02,16.40
2013,07,02,00,03,16.40
2013,07,02,00,04,16.40
2013,07,02,00,05,16.40
2013,07,02,00,06,16.40
2013,07,02,00,07,16.40
2013,07,02,00,08,16.40
2013,07,02,00,09,16.40
2013,07,02,00,10,16.40
2013,07,02,00,11,16.40
2013,07,02,00,12,16.40
2013,07,02,00,13,16.40
2013,07,02,00,14,16.40
2013,07,02,00,15,16.40
2013,07,02,00,16,16.40
2013,07,02,00,17,16.40
2013,07,02,00,18,16.40
2013,07,02,00,19,16.40
2013,07,02,00,20,16.40
2013,07,02,00,21,16.40
2013,07,02,00,22,16.40
2013,07,02,00,23,16.40
2013,07,02,00,24,16.40
2013,07,02,00,25,16.30
2013,07,02,00,26,16.30
2013,07,02,00,27,16.30
2013,07,02,00,28,16.30
2013,07,02,00,29,16.30
2013,07,02,00,30,16.30
2013,07,02,00,31,16.30
2013,07,02,00,32,16.30
2013,07,02,00,33,16.30
2013,07,02,00,34,16.30
2013,07,02,00,35,16.30
2013,07,02,00,36,16.30
2013,07,02,00,37,16.30
2013,07,02,00,38,16.30
2013,07,02,00,39,16.30
2013,07,02,00,40,16.30
2013,07,02,00,41,16.30
2013,07,02,00,42,16.30
2013,07,02,00,43,16.30
2013,07,02,00,44,16.30
2013,07,02,00,45,16.40
2013,07,02,00,46,16.40
2013,07,02,00,47,16.40
2013,07,02,00,48,16.30
2013,07,02,00,49,16.40
2013,07,02,00,50,16.30
2013,07,02,00,51,16.30
2013,07,02,00,52,16.30
2013,07,02,00,53,16.40
2013,07,02,00,54,16.40
2013,07,02,00,55,16.40
2013,07,02,00,56,16.40
2013,07,02,00,57,16.40
2013,07,02,00,58,16.40
2013,07,02,00,59,16.40
2013,07,02,01,00,16.40
2013,07,02,01,01,16.30
2013,07,02,01,02,16.30
2013,07,02,01,03,16.30
2013,07,02,01,04,16.30
2013,07,02,01,05,16.30
2013,07,02,01,06,16.40
2013,07,02,01,07,16.40
2013,07,02,01,08,16.40
2013,07,02,01,09,16.40
2013,07,02,01,10,16.40
2013,07,02,01,11,16.40
2013,07,02,01,12,16.40
2013,07,02,01,13,16.40
2013,07,02,01,14,16.40
2013,07,02,01,15,16.40
2013,07,02,01,16,16.50
2013,07,02,01,17,16.50
2013,07,02,01,18,16.50
2013,07,02,01,19,16.60
2013,07,02,01,20,16.60
2013,07,02,01,21,16.60
2013,07,02,01,22,16.60
2013,07,02,01,23,16.60
2013,07,02,01,24,16.60
2013,07,02,01,25,16.60
2013,07,02,01,26,16.60
2013,07,02,01,27,16.60
2013,07,02,01,28,16.60
2013,07,02,01,29,16.60
2013,07,02,01,30,16.70
2013,07,02,01,31,16.70
2013,07,02,01,32,16.70
2013,07,02,01,33,16.70
2013,07,02,01,34,16.70
2013,07,02,01,35,16.70
2013,07,02,01,36,16.70
2013,07,02,01,37,16.70
2013,07,02,01,38,16.70
2013,07,02,01,39,16.70
2013,07,02,01,40,16.80
2013,07,02,01,41,16.80
2013,07,02,01,42,16.80
2013,07,02,01,43,16.80
2013,07,02,01,44,16.80
2013,07,02,01,45,16.80
2013,07,02,01,46,16.80
2013,07,02,01,47,16.70
2013,07,02,01,48,16.80
2013,07,02,01,49,16.80
2013,07,02,01,50,16.80
2013,07,02,01,51,16.80
2013,07,02,01,52,16.80
2013,07,02,01,53,16.80
2013,07,02,01,54,16.80
2013,07,02,01,55,16.80
2013,07,02,01,56,16.80
2013,07,02,01,57,16.80
2013,07,02,01,58,16.80
2013,07,02,01,59,16.90
2013,07,02,02,00,16.90
2013,07,02,02,01,17.00
2013,07,02,02,02,17.00
2013,07,02,02,03,17.10
2013,07,02,02,04,17.10
2013,07,02,02,05,17.20
2013,07,02,02,06,17.20
2013,07,02,02,07,17.30
2013,07,02,02,08,17.40
2013,07,02,02,09,17.40
2013,07,02,02,10,17.40
2013,07,02,02,11,17.40
2013,07,02,02,12,17.50
2013,07,02,02,13,17.50
2013,07,02,02,14,17.40
2013,07,02,02,15,17.40
2013,07,02,02,16,17.40
2013,07,02,02,17,17.30
2013,07,02,02,18,17.20
2013,07,02,02,19,17.20
2013,07,02,02,20,17.10
2013,07,02,02,21,17.00
2013,07,02,02,22,16.90
2013,07,02,02,23,16.80
2013,07,02,02,24,16.70
2013,07,02,02,25,16.60
2013,07,02,02,26,16.50
2013,07,02,02,27,16.50
2013,07,02,02,28,16.40
2013,07,02,02,29,16.30
2013,07,02,02,30,16.20
2013,07,02,02,31,16.20
2013,07,02,02,32,16.10
2013,07,02,02,33,16.00
2013,07,02,02,34,15.90
2013,07,02,02,35,15.80
2013,07,02,02,36,15.80
2013,07,02,02,37,15.80
2013,07,02,02,38,15.70
2013,07,02,02,39,15.70
2013,07,02,02,40,15.60
2013,07,02,02,41,15.60
2013,07,02,02,42,15.60
2013,07,02,02,43,15.60
2013,07,02,02,44,15.60
2013,07,02,02,45,15.50
2013,07,02,02,46,15.50
2013,07,02,02,47,15.50
2013,07,02,02,48,15.40
2013,07,02,02,49,15.40
2013,07,02,02,50,15.40
2013,07,02,02,51,15.40
2013,07,02,02,52,15.30
2013,07,02,02,53,15.30
2013,07,02,02,54,15.30
2013,07,02,02,55,15.30
2013,07,02,02,56,15.30
2013,07,02,02,57,15.30
2013,07,02,02,58,15.30
2013,07,02,02,59,15.20
2013,07,02,03,00,15.20
2013,07,02,03,01,15.10
2013,07,02,03,02,15.10
2013,07,02,03,03,15.00
2013,07,02,03,04,15.00
2013,07,02,03,05,15.00
2013,07,02,03,06,15.00
2013,07,02,03,07,15.00
2013,07,02,03,08,15.00
2013,07,02,03,09,15.00
2013,07,02,03,10,15.00
2013,07,02,03,11,15.00
2013,07,02,03,12,14.90
2013,07,02,03,13,14.90
2013,07,02,03,14,14.80
2013,07,02,03,15,14.80
2013,07,02,03,16,14.80
2013,07,02,03,17,14.70
2013,07,02,03,18,14.70
2013,07,02,03,19,14.70
2013,07,02,03,20,14.60
2013,07,02,03,21,14.60
2013,07,02,03,22,14.60
2013,07,02,03,23,14.50
2013,07,02,03,24,14.40
2013,07,02,03,25,14.40
2013,07,02,03,26,14.40
2013,07,02,03,27,14.40
2013,07,02,03,28,14.30
2013,07,02,03,29,14.30
2013,07,02,03,30,14.30
2013,07,02,03,31,14.30
2013,07,02,03,32,14.30
2013,07,02,03,33,14.30
2013,07,02,03,34,14.30
2013,07,02,03,35,14.30
2013,07,02,03,36,14.30
2013,07,02,03,37,14.30
2013,07,02,03,38,14.30
2013,07,02,03,39,14.30
2013,07,02,03,40,14.30
2013,07,02,03,41,14.30
2013,07,02,03,42,14.30
2013,07,02,03,43,14.30
2013,07,02,03,44,14.30
2013,07,02,03,45,14.30
2013,07,02,03,46,14.30
2013,07,02,03,47,14.30
2013,07,02,03,48,14.30
2013,07,02,03,49,14.30
2013,07,02,03,50,14.30
2013,07,02,03,51,14.30
2013,07,02,03,52,14.30
2013,07,02,03,53,14.30
2013,07,02,03,54,14.30
2013,07,02,03,55,14.30
2013,07,02,03,56,14.30
2013,07,02,03,57,14.30
2013,07,02,03,58,14.30
2013,07,02,03,59,14.30
2013,07,02,04,00,14.30
2013,07,02,04,01,14.30
2013,07,02,04,02,14.30
2013,07,02,04,03,14.30
2013,07,02,04,04,14.20
2013,07,02,04,05,14.20
2013,07,02,04,06,14.20
2013,07,02,04,07,14.20
2013,07,02,04,08,14.20
2013,07,02,04,09,14.10
2013,07,02,04,10,14.10
2013,07,02,04,11,14.10
2013,07,02,04,12,14.10
2013,07,02,04,13,14.10
2013,07,02,04,14,14.00
2013,07,02,04,15,14.00
2013,07,02,04,16,13.90
2013,07,02,04,17,13.90
2013,07,02,04,18,13.90
2013,07,02,04,19,13.90
2013,07,02,04,20,13.80
2013,07,02,04,21,13.80
2013,07,02,04,22,13.80
2013,07,02,04,23,13.80
2013,07,02,04,24,13.80
2013,07,02,04,25,13.70
2013,07,02,04,26,13.70
2013,07,02,04,27,13.70
2013,07,02,04,28,13.70
2013,07,02,04,29,13.60
2013,07,02,04,30,13.60
2013,07,02,04,31,13.60
2013,07,02,04,32,13.60
2013,07,02,04,33,13.50
2013,07,02,04,34,13.50
2013,07,02,04,35,13.50
2013,07,02,04,36,13.40
2013,07,02,04,37,13.40
2013,07,02,04,38,13.40
2013,07,02,04,39,13.40
2013,07,02,04,40,13.40
2013,07,02,04,41,13.30
2013,07,02,04,42,13.30
2013,07,02,04,43,13.30
2013,07,02,04,44,13.30
2013,07,02,04,45,13.30
2013,07,02,04,46,13.30
2013,07,02,04,47,13.30
2013,07,02,04,48,13.20
2013,07,02,04,49,13.20
2013,07,02,04,50,13.20
2013,07,02,04,51,13.20
2013,07,02,04,52,13.20
2013,07,02,04,53,13.20
2013,07,02,04,54,13.20
2013,07,02,04,55,13.10
2013,07,02,04,56,13.10
2013,07,02,04,57,13.10
2013,07,02,04,58,13.10
2013,07,02,04,59,13.10
2013,07,02,05,00,13.10
2013,07,02,05,01,13.10
2013,07,02,05,02,13.10
2013,07,02,05,03,13.10
2013,07,02,05,04,13.10
2013,07,02,05,05,13.10
2013,07,02,05,06,13.10
2013,07,02,05,07,13.10
2013,07,02,05,08,13.10
2013,07,02,05,09,13.10
2013,07,02,05,10,13.10
2013,07,02,05,11,13.00
2013,07,02,05,12,13.00
2013,07,02,05,13,13.00
2013,07,02,05,14,13.00
2013,07,02,05,15,13.00
2013,07,02,05,16,12.90
2013,07,02,05,17,12.90
2013,07,02,05,18,12.90
2013,07,02,05,19,12.90
2013,07,02,05,20,12.90
2013,07,02,05,21,12.90
2013,07,02,05,22,12.90
2013,07,02,05,23,12.90
2013,07,02,05,24,12.90
2013,07,02,05,25,12.80
2013,07,02,05,26,12.80
2013,07,02,05,27,12.80
2013,07,02,05,28,12.80
2013,07,02,05,29,12.80
2013,07,02,05,30,12.80
2013,07,02,05,31,12.80
2013,07,02,05,32,12.80
2013,07,02,05,33,12.70
2013,07,02,05,34,12.70
2013,07,02,05,35,12.70
2013,07,02,05,36,12.70
2013,07,02,05,37,12.70
2013,07,02,05,38,12.70
2013,07,02,05,39,12.70
2013,07,02,05,40,12.70
2013,07,02,05,41,12.70
2013,07,02,05,42,12.70
2013,07,02,05,43,12.70
2013,07,02,05,44,12.70
2013,07,02,05,45,12.70
2013,07,02,05,46,12.70
2013,07,02,05,47,12.70
2013,07,02,05,48,12.70
2013,07,02,05,49,12.70
2013,07,02,05,50,12.70
2013,07,02,05,51,12.70
2013,07,02,05,52,12.70
2013,07,02,05,53,12.70
2013,07,02,05,54,12.70
2013,07,02,05,55,12.70
2013,07,02,05,56,12.70
2013,07,02,05,57,12.70
2013,07,02,05,58,12.70
2013,07,02,05,59,12.70
2013,07,02,06,00,12.70
2013,07,02,06,01,12.70
2013,07,02,06,02,12.70
2013,07,02,06,03,12.70
2013,07,02,06,04,12.70
2013,07,02,06,05,12.70
2013,07,02,06,06,12.70
2013,07,02,06,07,12.70
2013,07,02,06,08,12.70
2013,07,02,06,09,12.70
2013,07,02,06,10,12.70
2013,07,02,06,11,12.70
2013,07,02,06,12,12.70
2013,07,02,06,13,12.70
2013,07,02,06,14,12.60
2013,07,02,06,15,12.70
2013,07,02,06,16,12.70
2013,07,02,06,17,12.70
2013,07,02,06,18,12.70
2013,07,02,06,19,12.70
2013,07,02,06,20,12.70
2013,07,02,06,21,12.70
2013,07,02,06,22,12.80
2013,07,02,06,23,12.80
2013,07,02,06,24,12.80
2013,07,02,06,25,12.80
2013,07,02,06,26,12.90
2013,07,02,06,27,12.90
2013,07,02,06,28,12.90
2013,07,02,06,29,13.00
2013,07,02,06,30,13.00
2013,07,02,06,31,13.10
2013,07,02,06,32,13.20
2013,07,02,06,33,13.30
2013,07,02,06,34,13.30
2013,07,02,06,35,13.40
2013,07,02,06,36,13.50
2013,07,02,06,37,13.60
2013,07,02,06,38,13.60
2013,07,02,06,39,13.70
2013,07,02,06,40,13.80
2013,07,02,06,41,13.80
2013,07,02,06,42,13.90
2013,07,02,06,43,14.00
2013,07,02,06,44,14.10
2013,07,02,06,45,14.10
2013,07,02,06,46,14.20
2013,07,02,06,47,14.30
2013,07,02,06,48,14.40
2013,07,02,06,49,14.50
2013,07,02,06,50,14.60
2013,07,02,06,51,14.70
2013,07,02,06,52,14.70
2013,07,02,06,53,14.80
2013,07,02,06,54,14.90
2013,07,02,06,55,15.00
2013,07,02,06,56,15.00
2013,07,02,06,57,15.00
2013,07,02,06,58,15.10
2013,07,02,06,59,15.20
2013,07,02,07,00,15.40
2013,07,02,07,01,15.50
2013,07,02,07,02,15.60
2013,07,02,07,03,15.70
2013,07,02,07,04,15.80
2013,07,02,07,05,15.90
2013,07,02,07,06,16.00
2013,07,02,07,07,16.10
2013,07,02,07,08,16.20
2013,07,02,07,09,16.30
2013,07,02,07,10,16.50
2013,07,02,07,11,16.60
2013,07,02,07,12,16.70
2013,07,02,07,13,16.70
2013,07,02,07,14,16.80
2013,07,02,07,15,16.80
2013,07,02,07,16,16.80
2013,07,02,07,17,16.90
2013,07,02,07,18,17.10
2013,07,02,07,19,17.10
2013,07,02,07,20,17.20
2013,07,02,07,21,17.30
2013,07,02,07,22,17.40
2013,07,02,07,23,17.40
2013,07,02,07,24,17.50
2013,07,02,07,25,17.50
2013,07,02,07,26,17.60
2013,07,02,07,27,17.60
2013,07,02,07,28,17.60
2013,07,02,07,29,17.60
2013,07,02,07,30,17.60
2013,07,02,07,31,17.60
2013,07,02,07,32,17.60
2013,07,02,07,33,17.60
2013,07,02,07,34,17.60
2013,07,02,07,35,17.50
2013,07,02,07,36,17.60
2013,07,02,07,37,17.60
2013,07,02,07,38,17.50
2013,07,02,07,39,17.50
2013,07,02,07,40,17.50
2013,07,02,07,41,17.40
2013,07,02,07,42,17.40
2013,07,02,07,43,17.40
2013,07,02,07,44,17.50
2013,07,02,07,45,17.60
2013,07,02,07,46,17.60
2013,07,02,07,47,17.70
2013,07,02,07,48,17.70
2013,07,02,07,49,17.70
2013,07,02,07,50,17.70
2013,07,02,07,51,17.70
2013,07,02,07,52,17.60
2013,07,02,07,53,17.60
2013,07,02,07,54,17.50
2013,07,02,07,55,17.50
2013,07,02,07,56,17.50
2013,07,02,07,57,17.60
2013,07,02,07,58,17.70
2013,07,02,07,59,17.80
2013,07,02,08,00,17.80
2013,07,02,08,01,17.80
2013,07,02,08,02,17.80
2013,07,02,08,03,17.90
2013,07,02,08,04,17.90
2013,07,02,08,05,17.90
2013,07,02,08,06,17.80
2013,07,02,08,07,17.70
2013,07,02,08,08,17.60
2013,07,02,08,09,17.50
2013,07,02,08,10,17.50
2013,07,02,08,11,17.40
2013,07,02,08,12,17.50
2013,07,02,08,13,17.50
2013,07,02,08,14,17.60
2013,07,02,08,15,17.60
2013,07,02,08,16,17.60
2013,07,02,08,17,17.70
2013,07,02,08,18,17.70
2013,07,02,08,19,17.70
2013,07,02,08,20,17.80
2013,07,02,08,21,17.80
2013,07,02,08,22,17.90
2013,07,02,08,23,18.00
2013,07,02,08,24,18.10
2013,07,02,08,25,18.10
2013,07,02,08,26,18.20
2013,07,02,08,27,18.20
2013,07,02,08,28,18.30
2013,07,02,08,29,18.30
2013,07,02,08,30,18.30
2013,07,02,08,31,18.30
2013,07,02,08,32,18.20
2013,07,02,08,33,18.20
2013,07,02,08,34,18.20
2013,07,02,08,35,18.10
2013,07,02,08,36,18.20
2013,07,02,08,37,18.20
2013,07,02,08,38,18.30
2013,07,02,08,39,18.30
2013,07,02,08,40,18.30
2013,07,02,08,41,18.30
2013,07,02,08,42,18.40
2013,07,02,08,43,18.40
2013,07,02,08,44,18.40
2013,07,02,08,45,18.50
2013,07,02,08,46,18.40
2013,07,02,08,47,18.40
2013,07,02,08,48,18.40
2013,07,02,08,49,18.40
2013,07,02,08,50,18.40
2013,07,02,08,51,18.50
2013,07,02,08,52,18.50
2013,07,02,08,53,18.60
2013,07,02,08,54,18.60
2013,07,02,08,55,18.60
2013,07,02,08,56,18.60
2013,07,02,08,57,18.70
2013,07,02,08,58,18.70
2013,07,02,08,59,18.80
2013,07,02,09,00,18.80
2013,07,02,09,01,18.70
2013,07,02,09,02,18.70
2013,07,02,09,03,18.70
2013,07,02,09,04,18.80
2013,07,02,09,05,18.80
2013,07,02,09,06,18.80
2013,07,02,09,07,18.80
2013,07,02,09,08,18.80
2013,07,02,09,09,18.80
2013,07,02,09,10,18.90
2013,07,02,09,11,18.90
2013,07,02,09,12,18.90
2013,07,02,09,13,18.90
2013,07,02,09,14,19.00
2013,07,02,09,15,19.00
2013,07,02,09,16,19.10
2013,07,02,09,17,19.20
2013,07,02,09,18,19.30
2013,07,02,09,19,19.40
2013,07,02,09,20,19.40
2013,07,02,09,21,19.50
2013,07,02,09,22,19.60
2013,07,02,09,23,19.70
2013,07,02,09,24,19.80
2013,07,02,09,25,20.00
2013,07,02,09,26,20.10
2013,07,02,09,27,20.20
2013,07,02,09,28,20.20
2013,07,02,09,29,20.10
2013,07,02,09,30,19.90
2013,07,02,09,31,19.60
2013,07,02,09,32,19.40
2013,07,02,09,33,19.20
2013,07,02,09,34,19.20
2013,07,02,09,35,19.20
2013,07,02,09,36,19.10
2013,07,02,09,37,19.00
2013,07,02,09,38,19.10
2013,07,02,09,39,19.10
2013,07,02,09,40,19.20
2013,07,02,09,41,19.30
2013,07,02,09,42,19.30
2013,07,02,09,43,19.50
2013,07,02,09,44,19.60
2013,07,02,09,45,19.70
2013,07,02,09,46,19.80
2013,07,02,09,47,19.80
2013,07,02,09,48,19.90
2013,07,02,09,49,19.90
2013,07,02,09,50,19.80
2013,07,02,09,51,19.70
2013,07,02,09,52,19.50
2013,07,02,09,53,19.30
2013,07,02,09,54,19.20
2013,07,02,09,55,19.20
2013,07,02,09,56,19.20
2013,07,02,09,57,19.20
2013,07,02,09,58,19.00
2013,07,02,09,59,18.90
2013,07,02,10,00,18.70
2013,07,02,10,01,18.70
2013,07,02,10,02,18.60
2013,07,02,10,03,18.70
2013,07,02,10,04,18.80
2013,07,02,10,05,18.90
2013,07,02,10,06,18.90
2013,07,02,10,07,19.00
2013,07,02,10,08,19.20
2013,07,02,10,09,19.30
2013,07,02,10,10,19.50
2013,07,02,10,11,19.70
2013,07,02,10,12,19.90
2013,07,02,10,13,20.00
2013,07,02,10,14,20.20
2013,07,02,10,15,20.30
2013,07,02,10,16,20.40
2013,07,02,10,17,20.20
2013,07,02,10,18,20.00
2013,07,02,10,19,20.00
2013,07,02,10,20,19.90
2013,07,02,10,21,19.90
2013,07,02,10,22,19.90
2013,07,02,10,23,20.00
2013,07,02,10,24,20.00
2013,07,02,10,25,20.20
2013,07,02,10,26,20.30
2013,07,02,10,27,20.40
2013,07,02,10,28,20.40
2013,07,02,10,29,20.40
2013,07,02,10,30,20.40
2013,07,02,10,31,20.40
2013,07,02,10,32,20.40
2013,07,02,10,33,20.30
2013,07,02,10,34,20.30
2013,07,02,10,35,20.20
2013,07,02,10,36,20.10
2013,07,02,10,37,20.10
2013,07,02,10,38,20.00
2013,07,02,10,39,20.00
2013,07,02,10,40,20.10
2013,07,02,10,41,20.20
2013,07,02,10,42,20.20
2013,07,02,10,43,20.30
2013,07,02,10,44,20.30
2013,07,02,10,45,20.40
2013,07,02,10,46,20.50
2013,07,02,10,47,20.50
2013,07,02,10,48,20.60
2013,07,02,10,49,20.70
2013,07,02,10,50,20.70
2013,07,02,10,51,20.70
2013,07,02,10,52,20.80
2013,07,02,10,53,20.80
2013,07,02,10,54,20.70
2013,07,02,10,55,20.60
2013,07,02,10,56,20.60
2013,07,02,10,57,20.60
2013,07,02,10,58,20.60
2013,07,02,10,59,20.60
2013,07,02,11,00,20.40
2013,07,02,11,01,20.30
2013,07,02,11,02,20.30
2013,07,02,11,03,20.40
2013,07,02,11,04,20.40
2013,07,02,11,05,20.40
2013,07,02,11,06,20.40
2013,07,02,11,07,20.50
2013,07,02,11,08,20.50
2013,07,02,11,09,20.70
2013,07,02,11,10,20.80
2013,07,02,11,11,21.00
2013,07,02,11,12,21.10
2013,07,02,11,13,21.20
2013,07,02,11,14,21.20
2013,07,02,11,15,21.30
2013,07,02,11,16,21.30
2013,07,02,11,17,21.20
2013,07,02,11,18,21.10
2013,07,02,11,19,21.10
2013,07,02,11,20,21.20
2013,07,02,11,21,21.30
2013,07,02,11,22,21.40
2013,07,02,11,23,21.50
2013,07,02,11,24,21.60
2013,07,02,11,25,21.60
2013,07,02,11,26,21.50
2013,07,02,11,27,21.50
2013,07,02,11,28,21.50
2013,07,02,11,29,21.40
2013,07,02,11,30,21.30
2013,07,02,11,31,21.40
2013,07,02,11,32,21.30
2013,07,02,11,33,21.30
2013,07,02,11,34,21.30
2013,07,02,11,35,21.20
2013,07,02,11,36,21.20
2013,07,02,11,37,21.10
2013,07,02,11,38,21.10
2013,07,02,11,39,21.10
2013,07,02,11,40,21.10
2013,07,02,11,41,21.10
2013,07,02,11,42,21.30
2013,07,02,11,43,21.40
2013,07,02,11,44,21.50
2013,07,02,11,45,21.70
2013,07,02,11,46,21.80
2013,07,02,11,47,21.90
2013,07,02,11,48,22.00
2013,07,02,11,49,22.00
2013,07,02,11,50,21.90
2013,07,02,11,51,21.80
2013,07,02,11,52,21.80
2013,07,02,11,53,21.80
2013,07,02,11,54,21.80
2013,07,02,11,55,21.80
2013,07,02,11,56,21.80
2013,07,02,11,57,21.80
2013,07,02,11,58,21.80
2013,07,02,11,59,21.80
2013,07,02,12,00,21.90
2013,07,02,12,01,22.00
2013,07,02,12,02,22.10
2013,07,02,12,03,22.20
2013,07,02,12,04,22.20
2013,07,02,12,05,22.20
2013,07,02,12,06,22.20
2013,07,02,12,07,22.10
2013,07,02,12,08,22.10
2013,07,02,12,09,22.10
2013,07,02,12,10,22.20
2013,07,02,12,11,22.20
2013,07,02,12,12,22.10
2013,07,02,12,13,22.00
2013,07,02,12,14,21.90
2013,07,02,12,15,21.80
2013,07,02,12,16,21.80
2013,07,02,12,17,21.80
2013,07,02,12,18,21.90
2013,07,02,12,19,21.90
2013,07,02,12,20,21.90
2013,07,02,12,21,21.90
2013,07,02,12,22,21.90
2013,07,02,12,23,21.80
2013,07,02,12,24,21.60
2013,07,02,12,25,21.50
2013,07,02,12,26,21.40
2013,07,02,12,27,21.30
2013,07,02,12,28,21.30
2013,07,02,12,29,21.30
2013,07,02,12,30,21.40
2013,07,02,12,31,21.40
2013,07,02,12,32,21.60
2013,07,02,12,33,21.70
2013,07,02,12,34,21.70
2013,07,02,12,35,21.70
2013,07,02,12,36,21.80
2013,07,02,12,37,21.80
2013,07,02,12,38,21.90
2013,07,02,12,39,22.00
2013,07,02,12,40,22.10
2013,07,02,12,41,22.10
2013,07,02,12,42,22.10
2013,07,02,12,43,22.10
2013,07,02,12,44,22.20
2013,07,02,12,45,22.20
2013,07,02,12,46,22.30
2013,07,02,12,47,22.30
2013,07,02,12,48,22.30
2013,07,02,12,49,22.40
2013,07,02,12,50,22.30
2013,07,02,12,51,22.30
2013,07,02,12,52,22.30
2013,07,02,12,53,22.30
2013,07,02,12,54,22.30
2013,07,02,12,55,22.30
2013,07,02,12,56,22.20
2013,07,02,12,57,22.30
2013,07,02,12,58,22.30
2013,07,02,12,59,22.30
2013,07,02,13,00,22.30
2013,07,02,13,01,22.30
2013,07,02,13,02,22.30
2013,07,02,13,03,22.30
2013,07,02,13,04,22.30
2013,07,02,13,05,22.20
2013,07,02,13,06,22.20
2013,07,02,13,07,22.20
2013,07,02,13,08,22.20
2013,07,02,13,09,22.30
2013,07,02,13,10,22.30
2013,07,02,13,11,22.20
2013,07,02,13,12,22.20
2013,07,02,13,13,22.30
2013,07,02,13,14,22.30
2013,07,02,13,15,22.40
2013,07,02,13,16,22.50
2013,07,02,13,17,22.60
2013,07,02,13,18,22.70
2013,07,02,13,19,22.80
2013,07,02,13,20,22.80
2013,07,02,13,21,23.00
2013,07,02,13,22,23.10
2013,07,02,13,23,23.10
2013,07,02,13,24,23.10
2013,07,02,13,25,23.00
2013,07,02,13,26,23.00
2013,07,02,13,27,22.90
2013,07,02,13,28,22.80
2013,07,02,13,29,22.80
2013,07,02,13,30,22.70
2013,07,02,13,31,22.70
2013,07,02,13,32,22.70
2013,07,02,13,33,22.90
2013,07,02,13,34,23.00
2013,07,02,13,35,23.10
2013,07,02,13,36,23.20
2013,07,02,13,37,23.20
2013,07,02,13,38,23.20
2013,07,02,13,39,23.30
2013,07,02,13,40,23.30
2013,07,02,13,41,23.30
2013,07,02,13,42,23.30
2013,07,02,13,43,23.30
2013,07,02,13,44,23.40
2013,07,02,13,45,23.40
2013,07,02,13,46,23.40
2013,07,02,13,47,23.40
2013,07,02,13,48,23.50
2013,07,02,13,49,23.60
2013,07,02,13,50,23.70
2013,07,02,13,51,23.80
2013,07,02,13,52,23.80
2013,07,02,13,53,23.80
2013,07,02,13,54,23.90
2013,07,02,13,55,23.90
2013,07,02,13,56,24.00
2013,07,02,13,57,24.10
2013,07,02,13,58,24.10
2013,07,02,13,59,24.20
2013,07,02,14,00,24.30
2013,07,02,14,01,24.30
2013,07,02,14,02,24.30
2013,07,02,14,03,24.30
2013,07,02,14,04,24.30
2013,07,02,14,05,24.30
2013,07,02,14,06,24.30
2013,07,02,14,07,24.30
2013,07,02,14,08,24.20
2013,07,02,14,09,24.20
2013,07,02,14,10,24.10
2013,07,02,14,11,24.10
2013,07,02,14,12,24.10
2013,07,02,14,13,24.10
2013,07,02,14,14,24.10
2013,07,02,14,15,24.10
2013,07,02,14,16,24.10
2013,07,02,14,17,24.00
2013,07,02,14,18,24.00
2013,07,02,14,19,24.00
2013,07,02,14,20,23.90
2013,07,02,14,21,23.90
2013,07,02,14,22,23.90
2013,07,02,14,23,23.90
2013,07,02,14,24,23.90
2013,07,02,14,25,23.90
2013,07,02,14,26,23.80
2013,07,02,14,27,23.80
2013,07,02,14,28,23.80
2013,07,02,14,29,23.90
2013,07,02,14,30,24.00
2013,07,02,14,31,24.00
2013,07,02,14,32,24.10
2013,07,02,14,33,24.10
2013,07,02,14,34,24.20
2013,07,02,14,35,24.20
2013,07,02,14,36,24.20
2013,07,02,14,37,24.20
2013,07,02,14,38,24.20
2013,07,02,14,39,24.20
2013,07,02,14,40,24.20
2013,07,02,14,41,24.20
2013,07,02,14,42,24.10
2013,07,02,14,43,24.10
2013,07,02,14,44,24.10
2013,07,02,14,45,24.10
2013,07,02,14,46,24.20
2013,07,02,14,47,24.20
2013,07,02,14,48,24.20
2013,07,02,14,49,24.20
2013,07,02,14,50,24.30
2013,07,02,14,51,24.40
2013,07,02,14,52,24.40
2013,07,02,14,53,24.50
2013,07,02,14,54,24.50
2013,07,02,14,55,24.60
2013,07,02,14,56,24.60
2013,07,02,14,57,24.50
2013,07,02,14,58,24.50
2013,07,02,14,59,24.50
2013,07,02,15,00,24.40
2013,07,02,15,01,24.30
2013,07,02,15,02,24.20
2013,07,02,15,03,24.20
2013,07,02,15,04,24.10
2013,07,02,15,05,24.20
2013,07,02,15,06,24.20
2013,07,02,15,07,24.20
2013,07,02,15,08,24.20
2013,07,02,15,09,24.10
2013,07,02,15,10,24.10
2013,07,02,15,11,24.10
2013,07,02,15,12,24.10
2013,07,02,15,13,24.10
2013,07,02,15,14,24.10
2013,07,02,15,15,24.10
2013,07,02,15,16,24.10
2013,07,02,15,17,24.20
2013,07,02,15,18,24.20
2013,07,02,15,19,24.20
2013,07,02,15,20,24.10
2013,07,02,15,21,24.10
2013,07,02,15,22,24.10
2013,07,02,15,23,24.10
2013,07,02,15,24,24.10
2013,07,02,15,25,24.10
2013,07,02,15,26,24.10
2013,07,02,15,27,24.10
2013,07,02,15,28,24.10
2013,07,02,15,29,24.20
2013,07,02,15,30,24.20
2013,07,02,15,31,24.20
2013,07,02,15,32,24.10
2013,07,02,15,33,24.00
2013,07,02,15,34,23.90
2013,07,02,15,35,23.90
2013,07,02,15,36,23.80
2013,07,02,15,37,23.80
2013,07,02,15,38,23.70
2013,07,02,15,39,23.70
2013,07,02,15,40,23.80
2013,07,02,15,41,23.90
2013,07,02,15,42,23.90
2013,07,02,15,43,24.00
2013,07,02,15,44,24.00
2013,07,02,15,45,23.90
2013,07,02,15,46,23.90
2013,07,02,15,47,23.90
2013,07,02,15,48,23.90
2013,07,02,15,49,24.00
2013,07,02,15,50,23.90
2013,07,02,15,51,24.00
2013,07,02,15,52,24.00
2013,07,02,15,53,24.10
2013,07,02,15,54,24.10
2013,07,02,15,55,24.10
2013,07,02,15,56,24.10
2013,07,02,15,57,24.10
2013,07,02,15,58,24.10
2013,07,02,15,59,24.10
2013,07,02,16,00,24.10
2013,07,02,16,01,24.10
2013,07,02,16,02,24.00
2013,07,02,16,03,23.90
2013,07,02,16,04,24.00
2013,07,02,16,05,24.00
2013,07,02,16,06,24.10
2013,07,02,16,07,24.10
2013,07,02,16,08,24.10
2013,07,02,16,09,24.10
2013,07,02,16,10,24.10
2013,07,02,16,11,24.20
2013,07,02,16,12,24.30
2013,07,02,16,13,24.30
2013,07,02,16,14,24.30
2013,07,02,16,15,24.40
2013,07,02,16,16,24.50
2013,07,02,16,17,24.50
2013,07,02,16,18,24.60
2013,07,02,16,19,24.60
2013,07,02,16,20,24.60
2013,07,02,16,21,24.40
2013,07,02,16,22,24.30
2013,07,02,16,23,24.20
2013,07,02,16,24,24.10
2013,07,02,16,25,24.10
2013,07,02,16,26,24.10
2013,07,02,16,27,24.10
2013,07,02,16,28,24.00
2013,07,02,16,29,23.80
2013,07,02,16,30,23.80
2013,07,02,16,31,23.80
2013,07,02,16,32,23.80
2013,07,02,16,33,23.80
2013,07,02,16,34,23.90
2013,07,02,16,35,24.00
2013,07,02,16,36,24.10
2013,07,02,16,37,24.20
2013,07,02,16,38,24.30
2013,07,02,16,39,24.50
2013,07,02,16,40,24.60
2013,07,02,16,41,24.70
2013,07,02,16,42,24.80
2013,07,02,16,43,24.80
2013,07,02,16,44,25.00
2013,07,02,16,45,25.10
2013,07,02,16,46,25.20
2013,07,02,16,47,25.20
2013,07,02,16,48,25.20
2013,07,02,16,49,25.20
2013,07,02,16,50,25.20
2013,07,02,16,51,25.30
2013,07,02,16,52,25.30
2013,07,02,16,53,25.40
2013,07,02,16,54,25.40
2013,07,02,16,55,25.40
2013,07,02,16,56,25.40
2013,07,02,16,57,25.40
2013,07,02,16,58,25.40
2013,07,02,16,59,25.40
2013,07,02,17,00,25.40
2013,07,02,17,01,25.40
2013,07,02,17,02,25.30
2013,07,02,17,03,25.30
2013,07,02,17,04,25.30
2013,07,02,17,05,25.30
2013,07,02,17,06,25.30
2013,07,02,17,07,25.20
2013,07,02,17,08,25.20
2013,07,02,17,09,25.10
2013,07,02,17,10,25.10
2013,07,02,17,11,25.00
2013,07,02,17,12,25.00
2013,07,02,17,13,24.90
2013,07,02,17,14,24.90
2013,07,02,17,15,24.80
2013,07,02,17,16,24.70
2013,07,02,17,17,24.60
2013,07,02,17,18,24.50
2013,07,02,17,19,24.50